Weather History for 78073 - September, 2013

Change the Weather History Date:

Sunday, September 1, 2013

  Actual Average Record
Temperature  
Mean Temperature 82 °F -  
Max Temperature 89 °F 88 °F - ()
Min Temperature 74 °F 74 °F - ()
Cooling Degree Days 16    
Growing Degree Days 32 (Base 50)    
Moisture  
Dew Point 77 °F    
Average Humidity 82    
Maximum Humidity 100    
Minimum Humidity 64    
Precipitation  
Precipitation 0.00 in 0.23 in - ()
Sea Level Pressure  
Sea Level Pressure 29.99 in    
Wind  
Wind Speed 2 mph ()    
Max Wind Speed 5 mph    
Max Gust Speed -    
Visibility 6.7 miles    
Events Rain , Thunderstorm    
T = Trace of Precipitation, MM = Missing Value Source: Averaged Metar Reports

Daily Weather History Graph

Daily Weather History Graph

Search for Another Location

Airport or City:

Trip Planner

Search our weather history database for the weather conditions in past years. The results will help you decide how hot, cold, wet, or windy it might be!

Date:

Astronomy

Sep. 01, 2013 Rise Set
Actual Time 6:50 AM EDT 7:28 PM EDT
Civil Twilight 6:27 AM EDT 7:51 PM EDT
Nautical Twilight 6:00 AM EDT 8:18 PM EDT
Astronomical Twilight 5:32 AM EDT 8:46 PM EDT
Moon 3:25 AM EDT (9/1) 4:52 PM EDT (9/1)
Length of Visible Light 13h 23m
Length of Day
12h 37m
Waning Crescent, 14% of the Moon is Illuminated
Sep 1
Waning Crescent
Sep 5
New
Sep 12
First Quarter
Sep 19
Full
Sep 26
Last Quarter

Hourly Weather History & Observations

Time (EDT) Temp. Heat Index Dew Point Humidity Pressure Visibility Wind Dir Wind Speed Gust Speed Precip Events Conditions
12:00 AM - - - N/A% 30.02 in 6.2 mi Variable 2.3 mph - N/A Rain Light Rain Showers
1:00 AM 75.2 °F - 71.6 °F 89% 30.01 in 6.2 mi Calm Calm - N/A Thunderstorm Mostly Cloudy
2:00 AM 79 °F - 78 °F 96% 29.99 in 8 mi ESE 3.5 mph - -   Partly Cloudy
2:00 AM 78.8 °F - 78.8 °F 100% 29.99 in 6.2 mi ESE 3.5 mph - N/A   Mostly Cloudy
4:00 AM 78.8 °F - 77.0 °F 94% 29.94 in 6.2 mi Calm Calm - N/A   Mostly Cloudy
5:00 AM 79 °F - 77 °F 92% 29.94 in 8 mi Calm Calm - -   Partly Cloudy
5:00 AM 78.8 °F - 77.0 °F 94% 29.94 in 6.2 mi Calm Calm - N/A   Mostly Cloudy
6:00 AM 77.0 °F - 77.0 °F 100% 29.97 in 6.2 mi Calm Calm - N/A   Mostly Cloudy
7:00 AM 77.0 °F - 77.0 °F 100% 29.98 in 6.2 mi Calm Calm - N/A   Mostly Cloudy
8:00 AM 79 °F - 78 °F 95% 29.98 in 9 mi NNE 1.2 mph - -   Mostly Cloudy
8:00 AM 78.8 °F - 77.0 °F 94% 29.98 in 6.2 mi Variable 1.2 mph - N/A   Mostly Cloudy
9:00 AM 82.4 °F 89.5 °F 75.2 °F 79% 29.98 in 6.2 mi Calm Calm - N/A   Mostly Cloudy
10:00 AM 87.8 °F 99.7 °F 77.0 °F 70% - 6.2 mi East 4.6 mph - N/A   Mostly Cloudy
11:00 AM 88 °F - 78 °F 66% 30.01 in 9 mi East 3.5 mph - -   Mostly Cloudy
11:00 AM 87.8 °F 102.5 °F 78.8 °F 75% 30.01 in 6.2 mi East 3.5 mph - N/A   Mostly Cloudy
12:00 PM 87.8 °F 99.7 °F 77.0 °F 70% 30.01 in 6.2 mi East 3.5 mph - N/A   Mostly Cloudy
1:00 PM 87.8 °F 99.7 °F 77.0 °F 70% 30.00 in 6.2 mi ESE 4.6 mph - N/A   Mostly Cloudy
2:00 PM 89 °F - 78 °F 64% 29.99 in 9 mi ESE 4.6 mph - -   Partly Cloudy
2:00 PM 89.6 °F 104.7 °F 78.8 °F 70% 29.99 in 6.2 mi ESE 4.6 mph - N/A   Mostly Cloudy
3:00 PM 87.8 °F 99.7 °F 77.0 °F 70% 29.99 in 6.2 mi Calm Calm - N/A   Mostly Cloudy
4:00 PM 87.8 °F 99.7 °F 77.0 °F 70% 29.97 in 6.2 mi North 2.3 mph - N/A   Mostly Cloudy
5:00 PM 87.8 °F 99.7 °F 77.0 °F 70% 29.96 in 6.2 mi SSE 3.5 mph - N/A   Mostly Cloudy
6:00 PM 87.8 °F 97.6 °F 75.2 °F 66% 29.96 in 6.2 mi SSE 3.5 mph - N/A   Mostly Cloudy
7:00 PM 86.0 °F 95.1 °F 75.2 °F 70% 29.96 in 6.2 mi East 3.5 mph - N/A   Mostly Cloudy
8:00 PM 84.2 °F 94.1 °F 77.0 °F 79% 29.98 in 6.2 mi SSE 3.5 mph - N/A   Mostly Cloudy
9:00 PM 82.4 °F 90.9 °F 77.0 °F 84% 30.01 in 6.2 mi SSE 2.3 mph - N/A   Mostly Cloudy
10:00 PM 82.4 °F 90.9 °F 77.0 °F 84% 30.04 in 6.2 mi Calm Calm - N/A   Scattered Clouds
11:00 PM 83 °F - 79 °F 83% 30.02 in 8 mi Calm Calm - -   Scattered Clouds
11:00 PM 82.4 °F 92.4 °F 78.8 °F 89% 30.02 in 6.2 mi Calm Calm - N/A   Scattered Clouds